Showing default

GEESAT 3-03, 61013

Orbit data source: Space-Track

GEESAT 3-03, 61013 is a payload satellite owned by GeeSpace (CN) in LEO that was launched on Thu, 05 Sep 2024 UTC via a CHANG ZHENG 6 launch vehicle from the Taiyaun Space Center, China (TSC). Payloads include a variety of satellites, spacecraft, and rockets equipped with specific instruments for various scientific and technological missions. These include communications satellites like Starlink; space stations such as the ISS; scientific satellites like the Hubble; Earth observation satellites from companies like Planet Labs, Umbra, and HawkEye 360; GPS; miniature CubeSats for education and research; and military/defense satellites.

Loading next visibility...
GEESAT 3-03 details
Identifier
61013, 2024-159C
Orbit
LEO
Last TLE update18 hours ago
Origin
Flag of CNGeeSpace (CN / PRC)
ManufacturerTaizhou Xingkong
MissionOperational spacecraft
Bus & MotorGEESAT1, Unknown motor
Mass130 kg wet, 130 kg dry
Launch date (UTC)
2024-09-05 (4 months ago)
Launch vehicle
CHANG ZHENG 6
Launch site
Taiyaun Space Center, China (TSC)
Object type
Payload
Rocket body
Debris
Shape & HBRUnknown
Radar Cross SectionMedium (>0.1 m² and <1 m²)

Expand to show TLE details & history

TLE from 18 hours ago
0 GEESAT 3-03
1 61013U 24159C   25014.73462428  .00006905  00000-0  70050-3 0  9995
2 61013  49.9950 343.0976 0006069  18.4303 341.6857 14.91770907 19617
Epoch: 2025-01-14T17:37Z
Definitive object data (Epoch: 2025-01-14T17:37:51.537Z)
Latitude-0.00008°
Longitude-35.80427°
Altitude588.943 km
Speed7.569 km/s
True Right ascension22h 52m 23s
True Declination0° 00' 00"
Sunlit
Object was in daylight at TLE epoch
Visualization TLE readout
Latitude10.08973°
Longitude132.04869°
Altitude595.657 km
Speed7.562 km/s
Apparent Right ascension07h 02m 31s
Apparent Declination-32° 48' 57"
Sunlit
Object is in full shadow
Visualization observer readout
Local Sidereal Time12:43:51
Azimuth241.251° WSW
Elevation-17.176°
Doppler factor1
Orbital elements
Apogee altitude597.406 km
Perigee altitude588.945 km
Semi-major axis6,971.312 km
Eccentricity0.0006069
Inclination49.995°
RAAN343.0976°
Arg. of periapsis18.4303°
True anomaly341.66383°
Mean anomaly341.6857°
Eccentric anomaly341.67477°
Mean motion3.72882 °/min
BSTAR0.0007005
Orbital period96.55 mins
Loading maneuver chart data...
Loading historical data...
Loading historical data...
Loading historical data...
Loading historical data...
Loading historical data...
Loading historical data...
Loading historical data...

GEESAT 3-03 Visibility forecast

Observer location: undefined°, undefined

Span
Click to sort rows by Start time (UTC) header in descending order
Start Az.
Max El. time (UTC)
Max El. Az.
Max El.
End time (UTC)
End Az.
6 mins2025-01-16 00:22:33.241Z218.543° SW2025-01-16 00:24:33.241Z179.03° S41.364°2025-01-16 00:28:33.241Z61.64° ENE
6 mins2025-01-16 02:03:33.241Z287.96° WNW2025-01-16 02:06:33.241Z354.512° N27.337°2025-01-16 02:09:33.241Z41.804° NE
5 mins2025-01-16 03:45:33.241Z321.728° NNW2025-01-16 03:47:33.241Z355.381° N19.966°2025-01-16 03:50:33.241Z45.538° ENE
6 mins2025-01-16 05:27:33.241Z332.857° NNW2025-01-16 05:29:33.241Z21.096° NNE29.94°2025-01-16 05:33:33.241Z88.506° E
7 mins2025-01-16 07:07:33.241Z292.622° NW2025-01-16 07:10:33.241Z219.538° SW39.708°2025-01-16 07:14:33.241Z142.472° SSE
|